Location: Écuvilly
(49.6505°N, 2.9206°E)
Time: 01:01:44
(UTC+00:00)

COSMO-SKYMED 1 - Pass Details

Date: 17 November 2025
Orbit: 579 x 581 km, 97.9° (Epoch: 13 December)

Event Time Altitude Azimuth Distance (km) Brightness Sun altitude
Exits shadow 18:57:23 42° 301° (WNW) 836 3.5 -28.0°
Maximum altitude 18:57:37 43° 291° (WNW) 830 3.5 -28.0°
Drops below altitude 10° 19:01:30 10° 220° (SW) 1,893 5.4 -28.7°
Sets 19:03:42 0° 213° (SSW) 2,787 6.3 -29.0°
